This is the latest recevied weather packets stored in our database for station/object HASTNG-WX. If no packets are shown the sender has not sent any weather packets the latest 10 day(s).
| Time | Temp. | Humidity | Pressure | Rain* | Wind** | Luminosity | Snow |
|---|---|---|---|---|---|---|---|
| 1777685445 | 2.78° C | 61% | 987.3 hPa | 0 mm | - | - | - |
| 1777684528 | 2.78° C | 61% | 987.3 hPa | 0 mm | - | - | - |
| 1777683650 | 3.33° C | 61% | 987.3 hPa | 0 mm | - | - | - |
| 1777682728 | 3.89° C | 56% | 987.8 hPa | 0 mm | - | - | - |
| 1777681846 | 4.44° C | 57% | 988.2 hPa | 0 mm | - | - | - |
| 1777680929 | 5° C | 57% | 988.2 hPa | 0 mm | - | - | - |
| 1777680061 | 5.56° C | 57% | 988.2 hPa | 0 mm | - | - | - |
| 1777679129 | 5.56° C | 57% | 986.5 hPa | 0 mm | - | - | - |
| 1777678243 | 6.11° C | 59% | 987.7 hPa | 0 mm | - | - | - |
| 1777677329 | 6.11° C | 59% | 987.7 hPa | 0 mm | - | - | - |
| 1777676451 | 6.11° C | 59% | 987.7 hPa | 0 mm | - | - | - |
| 1777675529 | 6.11° C | 62% | 986.4 hPa | 0 mm | - | - | - |
| 1777674648 | 6.67° C | 60% | 987.4 hPa | 0 mm | - | - | - |
| 1777673729 | 6.11° C | 60% | 987.4 hPa | 0 mm | - | - | - |
| 1777672857 | 6.11° C | 60% | 987.4 hPa | 0 mm | - | - | - |
| 1777671929 | 6.11° C | 59% | 986.8 hPa | 0 mm | - | - | - |
| 1777671043 | 6.11° C | 55% | 987.2 hPa | 0 mm | - | - | - |
| 1777670129 | 7.22° C | 55% | 987.2 hPa | 0 mm | - | - | - |
| 1777669256 | 7.22° C | 55% | 987.2 hPa | 0 mm | - | - | - |
| 1777668329 | 6.67° C | 54% | 986.4 hPa | 0 mm | - | - | - |
| 1777667447 | 6.67° C | 52% | 986.6 hPa | 0 mm | - | - | - |
| 1777666529 | 6.67° C | 52% | 986.6 hPa | 0 mm | - | - | - |
| 1777665655 | 7.22° C | 52% | 986.6 hPa | 0 mm | - | - | - |
| 1777664728 | 7.78° C | 59% | 986.3 hPa | 0 mm | - | - | - |
| 1777663846 | 7.78° C | 59% | 986.3 hPa | 0 mm | - | - | - |
* Rain latest hour (hover to see other rain measurements)
** Current wind speed in m/s (hover to see current wind gust speed)